Temperature
18 18 17 17 17 17 17 16 16 16 16 16 15 15 15 15 15 15 14 14 14 14 13 13 13 13 13 13 13 12 12 12 12 12 12 12 12 12 11 11 11 11 11
18 17 17 17 17 17 17 16 16 16 16 16 15 15 15 15 15 14 14 14 13 13 13 13 13 13 13 12 12 12 12 12 12 12 12 11 11 11 11 11 11 11 11
18 18 17 17 17 17 17 16 16 16 16 15 15 15 15 15 14 14 14 14 13 13 13 13 13 13 12 12 12 12 12 12 11 11 11 11 11 11 11 11 11 11 11
18 18 17 17 17 17 16 16 16 16 16 15 15 15 15 15 14 14 14 14 13 13 13 13 13 12 12 12 12 12 11 11 11 11 11 11 11 11 11 11 11 11 11
18 18 17 17 17 17 16 16 16 16 15 15 15 15 15 15 14 14 14 14 13 13 13 13 13 13 12 12 12 11 11 11 11 11 11 11 11 10 10 10 10 10 10
18 18 17 17 17 16 16 16 16 16 15 15 15 15 15 15 14 14 14 13 13 13 12 12 12 12 12 12 12 12 11 11 11 10 10 10 10 10 10 10 10 10 10
17 17 17 17 17 16 16 16 16 15 15 15 15 14 14 14 14 14 14 13 13 12 12 12 12 12 12 12 11 11 11 11 11 10 10 10 10 10 10 10 9 9 9
17 17 17 17 16 16 16 16 15 15 15 15 14 14 14 14 14 14 13 13 12 12 12 12 12 11 11 11 11 11 11 11 10 10 10 10 10 10 9 9 9 9 9
17 17 17 16 16 16 16 15 15 15 15 14 14 14 14 13 13 13 13 13 12 12 12 12 11 11 11 11 11 10 10 10 10 10 10 10 10 10 9 9 8 8 8
17 16 16 16 16 16 15 15 15 15 14 14 14 14 13 13 13 13 13 12 12 12 12 11 11 11 11 11 10 10 10 10 9 9 9 9 9 9 9 8 8 7 8
16 16 16 16 15 15 15 15 14 14 14 14 13 13 13 13 13 13 12 12 12 11 11 11 11 11 11 11 10 10 9 9 9 9 9 8 8 8 8 8 8 7 7
16 16 15 15 15 15 15 14 14 14 14 13 13 13 13 12 12 12 12 12 11 11 11 11 11 11 10 10 10 10 9 9 8 8 8 8 8 7 7 7 7 7 7
16 15 15 15 15 15 14 14 14 13 13 13 12 12 12 12 12 12 12 11 11 11 10 10 10 10 10 9 9 9 9 8 8 7 7 7 7 7 7 7 6 6 6
15 15 15 14 14 14 14 14 13 13 13 12 12 12 11 11 11 11 11 11 10 10 10 10 9 9 9 9 8 8 8 7 7 7 7 6 6 6 6 6 5 5 5
15 14 14 14 13 13 13 13 13 12 12 12 11 11 11 11 11 11 10 10 10 10 9 9 9 8 8 8 8 7 7 7 7 6 6 6 5 5 5 5 5 4 4
14 14 14 13 13 13 12 12 12 12 12 11 11 11 10 10 10 10 10 10 9 9 9 8 8 8 7 7 7 7 6 6 6 6 5 5 5 4 4 4 4 4 3
14 13 13 13 13 12 12 12 11 11 11 11 11 10 10 10 10 10 9 9 9 8 8 7 7 7 7 6 6 6 6 5 5 5 4 4 4 3 3 3 3 3 3
13 13 13 12 12 12 11 11 11 11 10 10 10 10 10 10 9 9 9 8 8 7 7 7 6 6 6 6 6 5 5 5 5 4 4 4 3 3 3 3 2 2 2
13 12 12 12 12 11 11 10 10 10 10 10 10 9 9 9 9 8 8 7 7 7 7 6 6 6 5 5 5 5 5 4 4 4 3 3 3 2 2 2 2 2 2
12 12 12 11 11 10 10 10 10 9 9 9 9 9 8 8 8 8 7 7 7 6 6 6 5 5 5 5 4 4 4 4 3 3 3 2 2 2 2 1 1 1 1
12 11 11 11 10 10 10 9 9 9 9 8 8 8 8 8 7 7 7 6 6 6 6 5 5 5 4 4 4 4 3 3 3 3 2 2 2 2 1 1 1 1 0
11 10 10 10 10 9 9 9 8 8 8 8 8 7 7 7 7 6 6 6 6 5 5 5 5 4 4 4 4 3 3 3 2 2 2 2 1 1 1 1 1 0 0
10 10 10 9 9 9 9 8 8 8 8 7 7 7 7 6 6 6 6 5 5 5 5 4 4 4 4 3 3 3 3 2 2 2 1 1 1 1 0 0 0 -0 -0
9 9 9 9 8 8 8 8 7 7 7 7 7 6 6 6 6 5 5 5 5 4 4 4 4 3 3 3 3 3 2 2 2 1 1 1 1 0 0 -0 -0 -1 -1
9 9 9 8 8 8 7 7 7 7 7 6 6 6 6 5 5 5 5 4 4 4 4 3 3 3 3 3 2 2 2 2 1 1 1 0 0 0 -0 -0 -1 -1 -1
8 8 8 8 7 7 7 7 6 6 6 6 6 6 5 5 5 5 4 4 4 3 3 3 3 2 2 2 2 2 2 1 1 1 0 -0 -0 -0 -1 -1 -1 -1 -1
Wind_Speed
8 8 8 7 6 6 5 5 5 4 5 5 4 4 4 4 4 4 3 3 2 2 2 1 1 1 1 1 1 1 2 2 3 2 2 2 3 4 4 5 5 5 5
8 8 7 7 7 6 6 6 6 5 5 4 4 4 4 4 4 4 4 3 3 2 2 2 2 1 2 2 1 2 2 2 3 3 2 2 3 4 4 5 4 4 5
7 7 7 7 7 7 6 6 5 5 5 5 4 4 4 4 4 4 4 3 3 2 2 2 2 2 2 2 2 2 2 2 2 3 3 2 3 3 4 4 4 4 5
7 7 7 7 7 7 6 5 5 5 5 5 5 4 4 4 4 4 4 4 3 2 2 2 2 2 2 2 2 2 2 2 2 3 3 3 3 3 4 4 4 3 4
7 7 7 7 6 6 5 5 5 5 4 4 4 4 3 3 3 3 4 4 3 3 2 2 1 1 3 2 2 2 2 2 2 3 3 3 3 3 4 4 5 5 4
7 7 6 6 6 6 6 5 5 5 4 4 4 4 3 2 2 1 3 4 3 3 3 2 2 2 2 2 2 3 4 4 4 3 4 4 5 5 4 5 5 6 5
7 6 6 6 6 6 6 5 5 5 5 4 4 4 4 3 4 4 5 4 4 3 3 3 2 2 2 2 4 5 4 4 6 6 5 5 6 5 6 6 6 6 6
7 6 6 6 6 5 5 5 5 5 5 4 4 4 4 3 4 5 5 5 4 4 4 4 3 3 2 3 3 3 3 3 4 4 5 6 6 6 6 6 7 7 7
6 6 6 6 6 6 6 5 5 4 4 4 4 4 4 4 4 5 5 4 4 5 4 4 4 4 1 2 4 4 4 3 2 3 4 5 6 6 6 5 6 6 7
6 6 6 6 6 6 6 5 4 4 4 4 3 4 4 4 4 4 6 4 5 4 4 4 2 3 1 2 4 5 5 5 4 4 4 6 6 5 5 6 6 6 7
5 5 5 6 6 5 5 4 4 4 4 3 3 3 3 3 3 4 5 4 4 4 4 3 2 2 3 4 5 5 5 6 5 5 5 5 4 4 4 5 5 6 7
4 5 5 5 5 4 5 4 4 4 4 3 3 2 2 2 2 3 4 5 5 5 4 3 2 2 3 4 4 3 4 5 4 5 4 4 4 4 4 5 6 6 7
5 5 4 5 5 4 5 4 4 4 3 3 2 3 2 2 2 3 4 5 5 4 3 1 1 2 3 3 2 3 4 4 4 4 5 5 4 5 5 4 5 6 7
5 5 4 5 4 4 3 3 3 3 3 3 3 3 2 2 2 2 2 3 4 3 2 2 3 3 3 2 2 3 3 3 4 4 5 5 4 4 4 4 5 5 6
4 4 4 4 4 3 3 2 3 2 2 3 3 3 3 3 1 1 2 2 2 2 2 2 2 2 2 2 2 2 3 3 4 4 4 4 5 5 5 5 5 6 6
4 4 3 3 3 3 3 2 3 1 2 1 1 2 2 0 1 1 1 1 1 2 3 3 3 3 3 3 3 3 3 4 4 4 4 4 5 5 5 5 5 6 6
4 4 3 3 3 3 3 3 2 2 2 2 2 2 2 1 2 2 3 2 3 4 3 3 3 3 3 4 4 4 4 4 4 4 4 4 5 5 5 6 5 6 7
4 3 3 3 3 3 3 3 3 3 2 1 1 3 4 3 3 3 4 3 2 3 3 3 3 3 3 4 4 4 4 4 4 4 4 5 5 5 5 6 6 7 7
4 3 3 3 3 3 3 3 3 3 2 2 1 2 3 3 3 3 4 3 2 2 3 3 3 3 3 3 4 4 4 4 4 4 4 5 5 5 6 6 6 7 8
3 3 3 3 3 3 3 3 3 3 2 2 2 1 2 2 1 2 3 3 3 3 3 3 3 3 3 3 3 4 4 4 4 4 5 5 5 6 6 7 7 7 7
3 4 5 4 3 3 3 3 3 3 3 2 2 2 2 3 3 3 3 3 3 3 3 3 3 3 3 3 3 4 5 4 4 5 5 5 5 6 6 6 7 7 7
3 3 4 3 3 3 3 3 3 3 3 3 2 2 3 3 3 3 3 3 3 3 3 3 3 3 3 4 4 5 5 5 5 5 5 5 6 6 6 7 7 7 7
3 3 3 3 3 3 3 3 3 3 3 2 2 2 3 3 3 3 3 3 3 3 3 3 4 4 4 4 5 5 5 5 5 6 6 6 6 6 7 7 8 9 8
3 3 3 3 3 3 3 3 3 3 3 3 3 3 3 3 3 3 3 3 3 3 3 3 4 5 6 5 5 5 6 6 7 7 8 7 7 7 7 8 8 9 9
3 3 3 3 3 3 3 3 3 3 3 3 3 3 3 3 3 3 3 3 3 3 4 4 4 5 6 7 6 6 5 7 8 8 7 7 8 8 8 9 8 8 8
4 4 3 3 3 3 3 3 3 3 3 2 2 2 2 3 3 3 3 3 3 3 4 4 5 6 7 7 7 6 6 7 8 9 8 7 7 7 8 7 9 8 9
Wind_Direction
192 193 192 194 192 190 192 191 192 190 189 191 191 192 190 185 179 176 187 180 191 177 183 200 216 285 257 252 258 269 280 288 289 309 327 339 337 337 347 343 344 345 11
187 187 190 187 186 189 190 192 192 188 190 195 192 195 192 191 192 189 191 195 203 213 219 232 238 216 245 267 264 261 268 278 281 298 305 323 328 334 335 330 334 342 349
183 186 190 190 190 192 193 192 193 193 192 195 198 199 198 200 200 201 202 204 212 225 238 247 254 245 240 237 252 264 271 268 274 274 295 314 305 318 323 320 325 330 329
181 187 193 195 192 192 192 192 193 195 197 200 200 201 203 202 206 208 208 210 213 220 233 241 256 259 262 255 247 260 262 259 261 271 284 292 300 313 309 312 320 323 321
181 188 193 193 189 188 186 188 188 191 199 199 198 198 199 203 212 215 208 210 211 213 217 221 228 346 0 333 304 282 265 259 261 274 285 293 298 305 309 312 310 312 313
180 185 182 184 182 183 184 185 185 187 192 192 197 193 191 194 152 208 237 207 210 213 217 221 208 192 191 210 275 310 310 284 280 277 285 291 302 306 306 300 303 306 307
182 181 177 179 179 183 181 182 184 186 189 193 199 197 197 182 160 185 230 225 222 230 231 228 228 229 225 235 211 212 237 261 278 284 288 296 304 309 302 297 298 299 303
184 182 178 178 180 179 180 185 191 192 189 197 202 203 204 191 173 194 216 222 230 232 233 236 235 239 243 261 261 260 270 266 256 262 281 297 308 312 304 299 301 292 288
185 187 182 180 179 178 182 189 192 192 195 198 202 205 206 200 181 202 218 220 230 234 234 238 246 248 246 264 260 266 271 270 234 232 275 291 311 313 305 293 292 289 291
189 190 183 181 180 182 186 187 184 189 197 199 199 207 212 218 170 197 226 225 231 236 237 238 238 258 248 243 252 262 270 278 282 268 261 264 273 270 257 269 283 286 294
185 181 177 179 182 182 181 181 180 182 185 195 199 204 213 218 184 190 220 228 234 240 240 239 238 194 241 252 265 268 282 293 288 286 285 286 286 286 279 274 282 282 286
173 174 177 176 175 173 172 177 180 180 185 195 205 215 225 221 216 199 207 234 263 245 250 251 238 184 218 241 251 264 281 282 274 273 275 282 288 294 297 296 288 284 284
165 169 175 172 168 170 170 171 177 185 196 204 209 225 231 230 206 189 203 221 244 246 254 285 250 199 213 225 229 255 258 262 265 271 278 286 293 297 301 299 293 292 289
160 161 167 169 166 168 171 176 183 189 198 207 215 227 235 229 225 208 207 208 203 220 234 205 195 211 220 225 235 247 259 267 270 274 282 287 289 288 287 290 288 288 287
160 159 163 163 161 161 156 158 195 197 208 217 219 219 225 234 238 236 224 223 227 223 219 219 228 228 237 245 252 258 258 257 263 270 276 284 289 292 293 295 291 290 289
164 161 162 163 161 162 157 131 72 120 115 179 268 255 244 243 121 171 204 220 196 202 217 223 233 239 246 250 251 255 257 263 268 271 277 283 288 292 295 294 291 290 292
174 172 169 172 171 175 179 178 170 136 134 163 196 215 222 195 181 185 181 181 197 205 223 235 242 247 251 254 256 260 266 270 274 274 275 280 285 287 289 292 292 289 289
177 168 174 179 182 187 192 193 192 194 193 182 160 172 182 183 186 184 178 174 202 216 236 246 252 256 256 257 257 260 266 269 270 274 277 280 281 282 285 289 292 295 294
183 180 180 181 185 191 195 197 200 203 203 189 165 147 155 169 180 193 194 213 224 233 243 253 259 262 263 263 262 261 262 266 272 275 278 279 280 280 281 283 286 289 289
185 165 185 190 191 192 192 196 198 200 205 207 203 191 167 183 204 206 218 233 238 242 249 254 260 265 267 268 269 268 269 271 276 277 280 281 281 279 279 281 282 285 287
184 180 186 201 201 200 200 202 204 207 213 219 223 202 206 215 222 226 231 238 247 252 252 255 258 259 262 266 266 264 265 268 271 273 275 278 280 280 279 279 281 283 287
192 197 202 203 202 204 209 212 215 222 223 229 232 203 205 229 233 237 241 249 254 260 263 262 262 264 263 262 263 263 262 265 268 267 269 273 274 275 276 276 277 280 282
197 202 205 202 200 194 205 213 216 218 222 229 230 229 225 235 240 243 250 257 262 266 267 262 263 266 266 265 263 260 260 262 268 272 271 269 271 274 275 275 276 280 281
198 200 203 201 203 208 212 215 219 223 226 231 237 244 245 245 247 247 255 262 267 272 274 272 267 266 270 274 270 264 264 269 271 269 270 272 273 274 275 275 276 278 280
198 199 200 203 206 210 214 217 223 228 234 239 245 251 251 248 248 255 262 265 269 274 277 279 274 270 271 275 277 276 275 275 274 274 274 272 272 274 275 275 276 278 280
196 199 203 207 211 213 216 221 224 228 235 241 245 249 253 253 253 258 264 267 273 277 279 279 277 281 283 280 278 281 278 273 270 273 274 270 268 270 275 276 278 278 280
Height
1555 1557 1559 1560 1562 1563 1564 1565 1565 1566 1566 1567 1567 1567 1567 1567 1567 1567 1567 1567 1568 1568 1567 1567 1566 1565 1565 1565 1564 1563 1563 1563 1562 1561 1559 1557 1555 1553 1551 1549 1547 1545 1543
1553 1555 1557 1558 1560 1561 1562 1563 1564 1564 1565 1566 1566 1566 1566 1566 1566 1566 1566 1566 1566 1566 1566 1566 1565 1564 1564 1563 1563 1562 1562 1561 1561 1559 1558 1556 1554 1552 1550 1548 1546 1545 1542
1551 1553 1555 1556 1557 1559 1560 1561 1562 1563 1563 1564 1564 1564 1564 1564 1564 1564 1565 1565 1565 1565 1564 1564 1564 1563 1562 1562 1561 1561 1560 1559 1558 1558 1556 1554 1553 1551 1549 1547 1545 1543 1542
1549 1551 1552 1554 1555 1557 1558 1559 1560 1560 1561 1562 1562 1562 1562 1562 1563 1563 1563 1563 1563 1563 1562 1562 1561 1561 1561 1560 1560 1559 1558 1557 1556 1556 1555 1553 1551 1549 1548 1546 1544 1542 1540
1547 1548 1550 1552 1553 1554 1555 1556 1557 1558 1559 1559 1560 1560 1560 1560 1561 1561 1561 1561 1561 1561 1560 1560 1559 1559 1558 1558 1557 1557 1556 1556 1555 1554 1553 1552 1550 1548 1546 1545 1543 1541 1538
1544 1546 1547 1549 1550 1551 1553 1554 1555 1555 1556 1557 1557 1558 1558 1558 1558 1558 1559 1559 1559 1559 1558 1558 1557 1556 1556 1555 1555 1554 1554 1553 1553 1552 1551 1550 1548 1546 1544 1543 1541 1539 1537
1542 1544 1545 1546 1547 1549 1550 1551 1552 1553 1553 1554 1555 1555 1555 1555 1556 1556 1556 1556 1556 1556 1556 1556 1555 1554 1554 1553 1553 1552 1551 1550 1550 1549 1548 1547 1545 1544 1542 1540 1538 1536 1534
1540 1541 1542 1544 1545 1546 1547 1548 1549 1550 1551 1551 1552 1552 1552 1552 1553 1553 1553 1554 1554 1553 1553 1553 1553 1552 1551 1551 1551 1550 1549 1548 1547 1546 1544 1543 1542 1540 1539 1537 1535 1533 1531
1537 1539 1540 1541 1543 1544 1545 1546 1547 1547 1548 1549 1549 1549 1549 1550 1550 1550 1550 1551 1551 1551 1550 1550 1550 1549 1549 1548 1548 1547 1546 1545 1544 1542 1541 1539 1538 1536 1535 1533 1531 1530 1528
1535 1536 1538 1539 1540 1541 1542 1543 1544 1545 1545 1546 1546 1546 1547 1547 1547 1547 1547 1548 1548 1548 1547 1547 1546 1546 1545 1544 1544 1543 1543 1542 1541 1539 1537 1536 1534 1533 1531 1530 1528 1526 1524
1533 1534 1535 1536 1537 1539 1540 1541 1541 1542 1543 1543 1543 1543 1543 1544 1544 1544 1544 1544 1544 1544 1544 1543 1543 1542 1542 1541 1540 1540 1539 1538 1537 1535 1534 1532 1531 1529 1528 1526 1524 1522 1520
1530 1531 1532 1534 1535 1536 1537 1538 1538 1539 1539 1540 1540 1540 1540 1540 1540 1540 1540 1540 1540 1540 1540 1540 1539 1538 1538 1537 1536 1535 1535 1534 1533 1532 1530 1529 1527 1525 1524 1522 1520 1518 1516
1528 1529 1530 1531 1532 1533 1534 1534 1535 1536 1536 1537 1537 1537 1537 1537 1537 1536 1536 1536 1536 1536 1536 1536 1535 1534 1534 1533 1532 1532 1531 1530 1529 1528 1526 1525 1523 1521 1519 1517 1515 1513 1511
1525 1526 1527 1528 1529 1530 1531 1531 1532 1532 1533 1533 1533 1534 1534 1533 1533 1533 1533 1533 1533 1532 1532 1531 1531 1530 1530 1529 1528 1527 1527 1526 1525 1523 1522 1520 1519 1517 1515 1513 1511 1508 1506
1524 1525 1525 1526 1527 1528 1528 1528 1529 1529 1530 1530 1530 1530 1530 1530 1530 1530 1529 1529 1529 1529 1528 1528 1527 1527 1526 1525 1524 1524 1523 1522 1521 1519 1518 1516 1515 1513 1511 1509 1507 1504 1502
1522 1523 1523 1524 1524 1525 1525 1526 1526 1527 1527 1527 1527 1527 1527 1527 1527 1526 1526 1526 1526 1525 1525 1524 1523 1523 1522 1521 1521 1520 1519 1518 1517 1515 1514 1512 1510 1509 1507 1505 1502 1500 1498
1520 1520 1521 1521 1522 1523 1523 1523 1523 1524 1524 1524 1524 1524 1524 1524 1523 1523 1522 1522 1522 1522 1521 1520 1520 1519 1519 1518 1517 1516 1515 1514 1512 1511 1509 1508 1506 1504 1502 1500 1498 1496 1494
1517 1518 1518 1519 1519 1520 1520 1521 1521 1520 1520 1520 1521 1521 1520 1520 1520 1520 1519 1519 1518 1518 1518 1517 1516 1516 1515 1514 1513 1512 1510 1509 1508 1506 1505 1503 1501 1499 1498 1496 1494 1491 1489
1514 1515 1516 1516 1516 1517 1517 1518 1518 1518 1518 1517 1517 1518 1518 1517 1517 1517 1516 1516 1515 1515 1514 1513 1513 1512 1510 1509 1508 1507 1506 1504 1503 1502 1500 1498 1497 1495 1493 1491 1489 1486 1484
1511 1512 1512 1513 1513 1514 1514 1515 1515 1515 1515 1515 1515 1514 1514 1514 1514 1513 1513 1513 1512 1511 1511 1510 1508 1507 1506 1505 1504 1502 1501 1500 1498 1497 1495 1493 1492 1490 1488 1486 1484 1482 1479
1508 1508 1509 1510 1510 1511 1511 1511 1512 1512 1512 1512 1512 1511 1511 1511 1511 1510 1510 1509 1508 1507 1506 1505 1504 1503 1502 1500 1499 1498 1496 1495 1493 1491 1490 1488 1487 1485 1483 1481 1479 1477 1474
1504 1504 1505 1506 1506 1507 1507 1508 1508 1509 1509 1508 1508 1508 1507 1507 1507 1506 1506 1505 1504 1503 1502 1501 1500 1498 1497 1496 1494 1493 1491 1489 1488 1486 1485 1483 1481 1479 1478 1476 1473 1471 1469
1500 1501 1501 1502 1502 1503 1504 1504 1505 1505 1505 1505 1504 1504 1504 1503 1503 1502 1501 1500 1499 1498 1497 1496 1495 1493 1492 1490 1489 1487 1486 1484 1483 1481 1479 1477 1476 1474 1472 1470 1468 1466 1464
1496 1497 1497 1498 1499 1499 1500 1500 1501 1501 1501 1501 1501 1500 1500 1499 1498 1498 1497 1496 1495 1493 1492 1491 1490 1488 1487 1485 1483 1482 1480 1479 1477 1475 1474 1472 1470 1469 1467 1465 1463 1461 1459
1493 1493 1494 1494 1494 1495 1495 1496 1496 1496 1496 1496 1496 1496 1495 1495 1494 1493 1492 1491 1490 1488 1487 1486 1484 1483 1481 1480 1478 1476 1475 1473 1471 1470 1468 1466 1465 1463 1461 1459 1458 1456 1454
1489 1490 1490 1490 1491 1491 1492 1492 1492 1492 1492 1492 1492 1491 1491 1490 1489 1488 1487 1486 1485 1483 1482 1481 1479 1477 1476 1474 1473 1471 1469 1467 1465 1464 1462 1461 1459 1457 1456 1454 1452 1450 1449